,,,PA_Meas_PMT16A,,PR_Meas_QMR101_102,,RH_Meas_QMH101,,SR_Meas_QMS101,,TA_Meas_QMH101,,GenWind,,GenWind,
date,time,status,PA,status,PR,status,RH,status,SR,status,TA,status,DirAvg,status,SpdAvg,
2010-08-03, 00:00:04,VALID,1000.37,VALID,0,VALID,92.2192,VALID,0,VALID,22.6655,VALID,107,VALID,0,
2010-08-03, 00:01:04,VALID,1000.38,VALID,0,VALID,92.3413,VALID,0,VALID,22.6867,VALID,107,VALID,0,
2010-08-03, 00:02:04,VALID,1000.33,VALID,0,VALID,92.4786,VALID,0.112286,VALID,22.6867,VALID,107,VALID,0,
2010-08-03, 00:03:04,VALID,1000.36,VALID,0,VALID,92.5854,VALID,0,VALID,22.685,VALID,14,VALID,0,
2010-08-03, 00:04:04,VALID,1000.4,VALID,0,VALID,92.6694,VALID,0.112286,VALID,22.7062,VALID,14,VALID,0,
2010-08-03, 00:05:04,VALID,1000.38,VALID,0,VALID,92.6846,VALID,0,VALID,22.6867,VALID,14,VALID,0,
2010-08-03, 00:06:04,VALID,1000.39,VALID,0,VALID,92.7228,VALID,0,VALID,22.6867,VALID,346,VALID,0,
2010-08-03, 00:07:04,VALID,1000.39,VALID,0,VALID,92.822,VALID,0,VALID,22.7062,VALID,306,VALID,0,
2010-08-03, 00:08:04,VALID,1000.36,VALID,0,VALID,92.8983,VALID,0,VALID,22.724,VALID,308,VALID,0,
2010-08-03, 00:09:04,VALID,1000.34,VALID,0,VALID,92.9745,VALID,0,VALID,22.7647,VALID,312,VALID,0,
2010-08-03, 00:10:04,VALID,1000.33,VALID,0,VALID,93.0508,VALID,0,VALID,22.7647,VALID,344,VALID,0,
2010-08-03, 00:11:04,VALID,1000.32,VALID,0,VALID,93.1043,VALID,0,VALID,22.7842,VALID,347,VALID,0,
2010-08-03, 00:12:04,VALID,1000.32,VALID,0,VALID,93.1348,VALID,0,VALID,22.8037,VALID,347,VALID,0,
2010-08-03, 00:13:04,VALID,1000.31,VALID,0,VALID,93.1195,VALID,0,VALID,22.7825,VALID,347,VALID,0,
2010-08-03, 00:14:04,VALID,1000.3,VALID,0,VALID,93.0966,VALID,0,VALID,22.7842,VALID,347,VALID,0,
2010-08-03, 00:15:04,VALID,1000.29,VALID,0,VALID,93.0508,VALID,0,VALID,22.7452,VALID,347,VALID,0,
2010-08-03, 00:16:04,VALID,1000.27,VALID,0,VALID,93.0127,VALID,0,VALID,22.7257,VALID,347,VALID,0,
2010-08-03, 00:17:04,VALID,1000.26,VALID,0,VALID,93.0432,VALID,0,VALID,22.7452,VALID,347,VALID,0,
2010-08-03, 00:18:04,VALID,1000.23,VALID,0,VALID,93.0661,VALID,0,VALID,22.7257,VALID,347,VALID,0,
2010-08-03, 00:19:04,VALID,1000.21,VALID,0,VALID,93.0737,VALID,0,VALID,22.7257,VALID,347,VALID,0,
2010-08-03, 00:20:04,VALID,1000.18,VALID,0,VALID,93.1119,VALID,0,VALID,22.7257,VALID,347,VALID,0,
2010-08-03, 00:21:04,VALID,1000.18,VALID,0,VALID,93.1424,VALID,0,VALID,22.7257,VALID,347,VALID,0,
2010-08-03, 00:22:04,VALID,1000.2,VALID,0,VALID,93.1729,VALID,0,VALID,22.7257,VALID,347,VALID,0,
2010-08-03, 00:23:04,VALID,1000.18,VALID,0,VALID,93.1805,VALID,0,VALID,22.7257,VALID,347,VALID,0,
2010-08-03, 00:24:04,VALID,1000.19,VALID,0,VALID,93.2034,VALID,0,VALID,22.7257,VALID,347,VALID,0,
2010-08-03, 00:25:04,VALID,1000.19,VALID,0,VALID,93.2111,VALID,0,VALID,22.7062,VALID,347,VALID,0,
2010-08-03, 00:26:04,VALID,1000.18,VALID,0,VALID,93.2492,VALID,0,VALID,22.7062,VALID,347,VALID,0,
2010-08-03, 00:27:04,VALID,1000.18,VALID,0,VALID,93.2416,VALID,0,VALID,22.7062,VALID,347,VALID,0,
2010-08-03, 00:28:04,VALID,1000.19,VALID,0,VALID,93.2645,VALID,0,VALID,22.7062,VALID,347,VALID,0,
2010-08-03, 00:29:04,VALID,1000.19,VALID,0,VALID,93.2492,VALID,0,VALID,22.6867,VALID,347,VALID,0,
2010-08-03, 00:30:04,VALID,1000.16,VALID,0,VALID,93.2416,VALID,0,VALID,22.6477,VALID,347,VALID,0,
2010-08-03, 00:31:04,VALID,1000.2,VALID,0,VALID,93.2492,VALID,0,VALID,22.6477,VALID,347,VALID,0,
2010-08-03, 00:32:04,VALID,1000.19,VALID,0,VALID,93.2645,VALID,0,VALID,22.6087,VALID,347,VALID,0,
2010-08-03, 00:33:04,VALID,1000.18,VALID,0,VALID,93.3255,VALID,0,VALID,22.6282,VALID,347,VALID,0,
2010-08-03, 00:34:04,VALID,1000.17,VALID,0,VALID,93.3637,VALID,0,VALID,22.6477,VALID,347,VALID,0,
2010-08-03, 00:35:04,VALID,1000.17,VALID,0,VALID,93.4171,VALID,0,VALID,22.6477,VALID,347,VALID,0,
2010-08-03, 00:36:04,VALID,1000.13,VALID,0,VALID,93.3484,VALID,0,VALID,22.6087,VALID,347,VALID,0,
2010-08-03, 00:37:04,VALID,1000.16,VALID,0,VALID,93.3179,VALID,0,VALID,22.5501,VALID,347,VALID,0,
2010-08-03, 00:38:04,VALID,1000.12,VALID,0,VALID,93.3026,VALID,0,VALID,22.5306,VALID,347,VALID,0,
2010-08-03, 00:39:04,VALID,1000.11,VALID,0,VALID,93.3026,VALID,0,VALID,22.5501,VALID,347,VALID,0,
2010-08-03, 00:40:04,VALID,1000.08,VALID,0,VALID,93.3179,VALID,0,VALID,22.5696,VALID,348,VALID,0,
2010-08-03, 00:41:04,VALID,1000.08,VALID,0,VALID,93.3331,VALID,0,VALID,22.5892,VALID,86,VALID,0,
2010-08-03, 00:42:04,VALID,1000.07,VALID,0,VALID,93.3484,VALID,0,VALID,22.6087,VALID,107,VALID,0,
2010-08-03, 00:43:04,VALID,1000.04,VALID,0,VALID,93.356,VALID,0,VALID,22.6087,VALID,107,VALID,0,
2010-08-03, 00:44:04,VALID,1000.03,VALID,0,VALID,93.3408,VALID,0,VALID,22.5892,VALID,107,VALID,0,
2010-08-03, 00:45:04,VALID,1000.01,VALID,0,VALID,93.3103,VALID,0,VALID,22.5696,VALID,107,VALID,0,
2010-08-03, 00:46:04,VALID,1000,VALID,0,VALID,93.3103,VALID,0,VALID,22.5696,VALID,107,VALID,0,
2010-08-03, 00:47:04,VALID,1000.01,VALID,0,VALID,93.3103,VALID,0,VALID,22.5696,VALID,107,VALID,0,
2010-08-03, 00:48:04,VALID,999.992,VALID,0,VALID,93.3026,VALID,0,VALID,22.5501,VALID,107,VALID,0,
2010-08-03, 00:49:04,VALID,999.954,VALID,0,VALID,93.2492,VALID,0,VALID,22.5111,VALID,107,VALID,0,
2010-08-03, 00:50:04,VALID,999.93,VALID,0,VALID,93.1653,VALID,0,VALID,22.4721,VALID,107,VALID,0,
2010-08-03, 00:51:05,VALID,999.911,VALID,0,VALID,93.0966,VALID,0,VALID,22.4136,VALID,41,VALID,0,
2010-08-03, 00:52:05,VALID,999.913,VALID,0,VALID,93.0432,VALID,0,VALID,22.3958,VALID,41,VALID,0,
2010-08-03, 00:53:05,VALID,999.885,VALID,0,VALID,93.0432,VALID,0,VALID,22.3551,VALID,41,VALID,0,
2010-08-03, 00:54:05,VALID,999.858,VALID,0,VALID,93.0966,VALID,0,VALID,22.3356,VALID,41,VALID,0,
2010-08-03, 00:55:05,VALID,999.855,VALID,0,VALID,93.0661,VALID,0,VALID,22.3161,VALID,41,VALID,0,
2010-08-03, 00:56:05,VALID,999.847,VALID,0,VALID,93.0737,VALID,0,VALID,22.2966,VALID,41,VALID,0,
2010-08-03, 00:57:05,VALID,999.793,VALID,0,VALID,93.1577,VALID,0,VALID,22.2966,VALID,41,VALID,0,
2010-08-03, 00:58:05,VALID,999.758,VALID,0,VALID,93.295,VALID,0,VALID,22.3551,VALID,41,VALID,0,
2010-08-03, 00:59:05,VALID,999.767,VALID,0,VALID,93.3408,VALID,0,VALID,22.3941,VALID,41,VALID,0,
2010-08-03, 01:00:05,VALID,999.717,VALID,0,VALID,93.3331,VALID,0,VALID,22.3941,VALID,41,VALID,0,
2010-08-03, 01:01:05,VALID,999.706,VALID,0,VALID,93.3103,VALID,0,VALID,22.3551,VALID,41,VALID,0,
2010-08-03, 01:02:05,VALID,999.702,VALID,0,VALID,93.295,VALID,0,VALID,22.3746,VALID,41,VALID,0,
2010-08-03, 01:03:05,VALID,999.699,VALID,0,VALID,93.234,VALID,0,VALID,22.3356,VALID,41,VALID,0,
2010-08-03, 01:04:05,VALID,999.709,VALID,0,VALID,93.234,VALID,0,VALID,22.3746,VALID,17,VALID,0,
2010-08-03, 01:05:05,VALID,999.689,VALID,0,VALID,93.2645,VALID,0,VALID,22.3746,VALID,3,VALID,0,
2010-08-03, 01:06:05,VALID,999.665,VALID,0,VALID,93.2721,VALID,0,VALID,22.4136,VALID,358,VALID,0.0492188,
2010-08-03, 01:07:05,VALID,999.656,VALID,0,VALID,93.3103,VALID,0,VALID,22.4331,VALID,353,VALID,0.963672,
2010-08-03, 01:08:05,VALID,999.656,VALID,0,VALID,93.3637,VALID,0,VALID,22.4721,VALID,353,VALID,0.851563,
2010-08-03, 01:09:05,VALID,999.626,VALID,0,VALID,93.4018,VALID,0,VALID,22.4721,VALID,353,VALID,0.853516,
2010-08-03, 01:10:05,VALID,999.607,VALID,0,VALID,93.3942,VALID,0,VALID,22.4916,VALID,353,VALID,0.8375,
2010-08-03, 01:11:05,VALID,999.612,VALID,0,VALID,93.3713,VALID,0,VALID,22.4526,VALID,353,VALID,0.751562,
2010-08-03, 01:12:05,VALID,999.584,VALID,0,VALID,93.3484,VALID,0,VALID,22.4526,VALID,1,VALID,0.860547,
2010-08-03, 01:13:05,VALID,999.594,VALID,0,VALID,93.3331,VALID,0,VALID,22.4136,VALID,1,VALID,0.791016,
2010-08-03, 01:14:05,VALID,999.592,VALID,0,VALID,93.295,VALID,0,VALID,22.3941,VALID,2,VALID,0.473047,
2010-08-03, 01:15:05,VALID,999.609,VALID,0,VALID,93.234,VALID,0,VALID,22.3551,VALID,2,VALID,0.579297,
2010-08-03, 01:16:05,VALID,999.604,VALID,0,VALID,93.1729,VALID,0,VALID,22.3356,VALID,2,VALID,0.522656,
2010-08-03, 01:17:05,VALID,999.61,VALID,0,VALID,93.1424,VALID,0,VALID,22.2966,VALID,2,VALID,0.463281,
2010-08-03, 01:18:05,VALID,999.61,VALID,0,VALID,93.1348,VALID,0,VALID,22.2966,VALID,2,VALID,0.436328,
2010-08-03, 01:19:05,VALID,999.614,VALID,0,VALID,93.1424,VALID,0,VALID,22.2771,VALID,2,VALID,0.290234,
2010-08-03, 01:20:05,VALID,999.61,VALID,0,VALID,93.0966,VALID,0,VALID,22.2771,VALID,2,VALID,0.00585938,
2010-08-03, 01:21:05,VALID,999.622,VALID,0,VALID,93.0432,VALID,0,VALID,22.199,VALID,2,VALID,0,
2010-08-03, 01:22:05,VALID,999.628,VALID,0,VALID,93.0051,VALID,0,VALID,22.1795,VALID,2,VALID,0,
2010-08-03, 01:23:05,VALID,999.635,VALID,0,VALID,93.0051,VALID,0,VALID,22.16,VALID,2,VALID,0,
2010-08-03, 01:24:05,VALID,999.612,VALID,0,VALID,93.0356,VALID,0,VALID,22.1194,VALID,2,VALID,0,
2010-08-03, 01:25:05,VALID,999.613,VALID,0,VALID,93.0737,VALID,0,VALID,22.1405,VALID,2,VALID,0,
2010-08-03, 01:26:05,VALID,999.569,VALID,0,VALID,93.1653,VALID,0,VALID,22.1405,VALID,2,VALID,0,
2010-08-03, 01:27:05,VALID,999.566,VALID,0,VALID,93.2492,VALID,0,VALID,22.16,VALID,2,VALID,0,
2010-08-03, 01:28:05,VALID,999.545,VALID,0,VALID,93.3484,VALID,0.112286,VALID,22.1584,VALID,2,VALID,0,
2010-08-03, 01:29:05,VALID,999.522,VALID,0,VALID,93.3866,VALID,0,VALID,22.1795,VALID,2,VALID,0,
2010-08-03, 01:30:05,VALID,999.539,VALID,0,VALID,93.4323,VALID,0.112286,VALID,22.1795,VALID,2,VALID,0,
2010-08-03, 01:31:05,VALID,999.519,VALID,0,VALID,93.4628,VALID,0.112286,VALID,22.1795,VALID,2,VALID,0,
2010-08-03, 01:32:05,VALID,999.521,VALID,0,VALID,93.4552,VALID,0,VALID,22.16,VALID,2,VALID,0,
2010-08-03, 01:33:05,VALID,999.51,VALID,0,VALID,93.4628,VALID,0,VALID,22.1194,VALID,2,VALID,0,
2010-08-03, 01:34:05,VALID,999.495,VALID,0,VALID,93.4628,VALID,0,VALID,22.0803,VALID,2,VALID,0,
2010-08-03, 01:35:05,VALID,999.517,VALID,0,VALID,93.44,VALID,0,VALID,22.0608,VALID,2,VALID,0,
2010-08-03, 01:36:05,VALID,999.501,VALID,0,VALID,93.4476,VALID,0.112286,VALID,22.0625,VALID,2,VALID,0,
2010-08-03, 01:37:05,VALID,999.51,VALID,0,VALID,93.4094,VALID,0,VALID,22.0023,VALID,2,VALID,0,
2010-08-03, 01:38:05,VALID,999.494,VALID,0,VALID,93.4171,VALID,0,VALID,21.9438,VALID,2,VALID,0,
2010-08-03, 01:39:05,VALID,999.49,VALID,0,VALID,93.4094,VALID,0,VALID,21.9048,VALID,2,VALID,0,
2010-08-03, 01:40:05,VALID,999.477,VALID,0,VALID,93.4094,VALID,0,VALID,21.8658,VALID,2,VALID,0.426953,
2010-08-03, 01:41:05,VALID,999.478,VALID,0,VALID,93.5315,VALID,0,VALID,21.965,VALID,2,VALID,0.217969,
2010-08-03, 01:42:05,VALID,999.453,VALID,0,VALID,93.5926,VALID,0,VALID,22.004,VALID,61,VALID,0,
2010-08-03, 01:43:05,VALID,999.464,VALID,0,VALID,93.6002,VALID,0,VALID,21.9845,VALID,61,VALID,0,
2010-08-03, 01:44:05,VALID,999.504,VALID,0,VALID,93.6154,VALID,0,VALID,21.965,VALID,61,VALID,0,
2010-08-03, 01:45:05,VALID,999.458,VALID,0,VALID,93.6002,VALID,0,VALID,21.9455,VALID,61,VALID,0,
2010-08-03, 01:46:05,VALID,999.442,VALID,0,VALID,93.5926,VALID,0,VALID,21.9065,VALID,61,VALID,0,
2010-08-03, 01:47:05,VALID,999.43,VALID,0,VALID,93.6002,VALID,0,VALID,21.926,VALID,57,VALID,0,
2010-08-03, 01:48:05,VALID,999.43,VALID,0,VALID,93.6383,VALID,0,VALID,21.9455,VALID,54,VALID,0,
2010-08-03, 01:49:05,VALID,999.389,VALID,0,VALID,93.6383,VALID,0,VALID,21.9455,VALID,54,VALID,0,
2010-08-03, 01:50:05,VALID,999.378,VALID,0,VALID,93.6154,VALID,0,VALID,21.926,VALID,54,VALID,0,
2010-08-03, 01:51:05,VALID,999.343,VALID,0,VALID,93.5926,VALID,0,VALID,21.9065,VALID,54,VALID,0,
2010-08-03, 01:52:05,VALID,999.348,VALID,0,VALID,93.562,VALID,0,VALID,21.887,VALID,54,VALID,0,
2010-08-03, 01:53:05,VALID,999.337,VALID,0,VALID,93.5315,VALID,0,VALID,21.848,VALID,54,VALID,0,
2010-08-03, 01:54:05,VALID,999.297,VALID,0,VALID,93.501,VALID,0,VALID,21.8285,VALID,54,VALID,0,
2010-08-03, 01:55:05,VALID,999.297,VALID,0,VALID,93.5086,VALID,0,VALID,21.8073,VALID,54,VALID,0,
2010-08-03, 01:56:05,VALID,999.288,VALID,0,VALID,93.5315,VALID,0,VALID,21.848,VALID,54,VALID,0,
2010-08-03, 01:57:05,VALID,999.266,VALID,0,VALID,93.562,VALID,0,VALID,21.887,VALID,54,VALID,0,
2010-08-03, 01:58:05,VALID,999.243,VALID,0,VALID,93.6078,VALID,0,VALID,21.887,VALID,54,VALID,0,
2010-08-03, 01:59:05,VALID,999.263,VALID,0,VALID,93.6154,VALID,0,VALID,21.9065,VALID,54,VALID,0,
2010-08-03, 02:00:05,VALID,999.215,VALID,0,VALID,93.6612,VALID,0,VALID,21.965,VALID,54,VALID,0,
2010-08-03, 02:01:05,VALID,999.237,VALID,0,VALID,93.707,VALID,0,VALID,22.004,VALID,54,VALID,0,
2010-08-03, 02:02:05,VALID,999.209,VALID,0,VALID,93.7528,VALID,0,VALID,22.0625,VALID,54,VALID,0,
2010-08-03, 02:03:05,VALID,999.182,VALID,0,VALID,93.7985,VALID,0,VALID,22.0625,VALID,54,VALID,0,
2010-08-03, 02:04:05,VALID,999.19,VALID,0,VALID,93.8062,VALID,0,VALID,22.0235,VALID,54,VALID,0,
2010-08-03, 02:05:05,VALID,999.151,VALID,0,VALID,93.7909,VALID,0,VALID,22.0235,VALID,54,VALID,0,
2010-08-03, 02:06:05,VALID,999.167,VALID,0,VALID,93.7909,VALID,0,VALID,21.9845,VALID,54,VALID,0,
2010-08-03, 02:07:05,VALID,999.114,VALID,0,VALID,93.7985,VALID,0.112286,VALID,21.965,VALID,54,VALID,0,
2010-08-03, 02:08:05,VALID,999.104,VALID,0,VALID,93.7909,VALID,0,VALID,21.926,VALID,54,VALID,0,
2010-08-03, 02:09:05,VALID,999.086,VALID,0,VALID,93.7528,VALID,0,VALID,21.9065,VALID,54,VALID,0,
2010-08-03, 02:10:05,VALID,999.072,VALID,0,VALID,93.7451,VALID,0,VALID,21.8073,VALID,54,VALID,0,
2010-08-03, 02:11:05,VALID,999.087,VALID,0,VALID,93.7299,VALID,0,VALID,21.77,VALID,54,VALID,0,
2010-08-03, 02:12:05,VALID,999.079,VALID,0,VALID,93.7833,VALID,0,VALID,21.8285,VALID,54,VALID,0,
2010-08-03, 02:13:05,VALID,999.076,VALID,0,VALID,93.8443,VALID,0,VALID,21.926,VALID,54,VALID,0,
2010-08-03, 02:14:05,VALID,999.09,VALID,0,VALID,93.852,VALID,0,VALID,21.926,VALID,54,VALID,0,
2010-08-03, 02:15:05,VALID,999.105,VALID,0,VALID,93.8367,VALID,0,VALID,21.9065,VALID,54,VALID,0,
2010-08-03, 02:16:05,VALID,999.093,VALID,0,VALID,93.8825,VALID,0,VALID,21.887,VALID,54,VALID,0,
2010-08-03, 02:17:05,VALID,999.113,VALID,0,VALID,93.9206,VALID,0,VALID,21.887,VALID,54,VALID,0,
2010-08-03, 02:18:05,VALID,999.118,VALID,0,VALID,93.9359,VALID,0,VALID,21.926,VALID,86,VALID,0,
2010-08-03, 02:19:05,VALID,999.135,VALID,0,VALID,93.9435,VALID,0,VALID,21.9455,VALID,143,VALID,0,
2010-08-03, 02:20:05,VALID,999.117,VALID,0,VALID,93.9588,VALID,0,VALID,21.9845,VALID,145,VALID,0,
2010-08-03, 02:21:05,VALID,999.08,VALID,0,VALID,93.974,VALID,0,VALID,22.043,VALID,145,VALID,0,
2010-08-03, 02:22:05,VALID,999.065,VALID,0,VALID,93.9893,VALID,0.112286,VALID,22.1015,VALID,145,VALID,0,
2010-08-03, 02:23:05,VALID,999.052,VALID,0,VALID,93.9969,VALID,0,VALID,22.1405,VALID,145,VALID,0,
2010-08-03, 02:24:05,VALID,999.074,VALID,0,VALID,93.9893,VALID,0,VALID,22.16,VALID,145,VALID,0,
2010-08-03, 02:25:05,VALID,999.043,VALID,0,VALID,93.9664,VALID,0,VALID,22.1795,VALID,144,VALID,0,
2010-08-03, 02:26:05,VALID,999.051,VALID,0,VALID,93.974,VALID,0,VALID,22.1405,VALID,144,VALID,0,
2010-08-03, 02:27:05,VALID,999.02,VALID,0,VALID,93.913,VALID,0,VALID,22.16,VALID,144,VALID,0,
2010-08-03, 02:28:05,VALID,999.035,VALID,0,VALID,93.9054,VALID,0,VALID,22.121,VALID,144,VALID,0,
2010-08-03, 02:29:05,VALID,998.991,VALID,0,VALID,93.8748,VALID,0,VALID,22.082,VALID,144,VALID,0,
2010-08-03, 02:30:05,VALID,999.007,VALID,0,VALID,93.852,VALID,0,VALID,22.0625,VALID,144,VALID,0,
2010-08-03, 02:31:05,VALID,998.961,VALID,0,VALID,93.8214,VALID,0,VALID,22.0625,VALID,144,VALID,0,
2010-08-03, 02:32:05,VALID,998.946,VALID,0,VALID,93.8138,VALID,0,VALID,22.082,VALID,144,VALID,0,
2010-08-03, 02:33:05,VALID,998.956,VALID,0,VALID,93.7833,VALID,0,VALID,22.082,VALID,144,VALID,0,
2010-08-03, 02:34:05,VALID,998.933,VALID,0,VALID,93.7757,VALID,0,VALID,22.082,VALID,144,VALID,0,
2010-08-03, 02:35:05,VALID,998.911,VALID,0,VALID,93.7757,VALID,0,VALID,22.0625,VALID,144,VALID,0,
2010-08-03, 02:36:05,VALID,998.897,VALID,0,VALID,93.7604,VALID,0.112286,VALID,22.0625,VALID,40,VALID,0,
2010-08-03, 02:37:05,VALID,998.91,VALID,0,VALID,93.768,VALID,0,VALID,22.0625,VALID,40,VALID,0,
2010-08-03, 02:38:05,VALID,998.899,VALID,0,VALID,93.7604,VALID,0,VALID,22.0625,VALID,40,VALID,0,
2010-08-03, 02:39:05,VALID,998.864,VALID,0,VALID,93.7451,VALID,0,VALID,22.0625,VALID,40,VALID,0,
2010-08-03, 02:40:05,VALID,998.845,VALID,0,VALID,93.6917,VALID,0,VALID,22.004,VALID,33,VALID,0,
2010-08-03, 02:41:05,VALID,998.843,VALID,0,VALID,93.6154,VALID,0,VALID,21.965,VALID,33,VALID,0,
2010-08-03, 02:42:05,VALID,998.85,VALID,0,VALID,93.5697,VALID,0,VALID,21.9065,VALID,33,VALID,0,
2010-08-03, 02:43:05,VALID,998.853,VALID,0,VALID,93.4857,VALID,0,VALID,21.8675,VALID,33,VALID,0,
2010-08-03, 02:44:05,VALID,998.812,VALID,0,VALID,93.4018,VALID,0,VALID,21.8285,VALID,33,VALID,0,
2010-08-03, 02:45:05,VALID,998.802,VALID,0,VALID,93.3331,VALID,0,VALID,21.77,VALID,33,VALID,0,
2010-08-03, 02:46:05,VALID,998.788,VALID,0,VALID,93.2721,VALID,0,VALID,21.7505,VALID,33,VALID,0,
2010-08-03, 02:47:05,VALID,998.777,VALID,0,VALID,93.2874,VALID,0,VALID,21.731,VALID,33,VALID,0,
2010-08-03, 02:48:05,VALID,998.777,VALID,0,VALID,93.3179,VALID,0,VALID,21.77,VALID,33,VALID,0,
2010-08-03, 02:49:05,VALID,998.751,VALID,0,VALID,93.4171,VALID,0,VALID,21.809,VALID,33,VALID,0,
2010-08-03, 02:50:05,VALID,998.772,VALID,0,VALID,93.4552,VALID,0,VALID,21.809,VALID,33,VALID,0,
2010-08-03, 02:51:05,VALID,998.768,VALID,0,VALID,93.5239,VALID,0,VALID,21.8285,VALID,33,VALID,0,
2010-08-03, 02:52:05,VALID,998.779,VALID,0,VALID,93.5849,VALID,0,VALID,21.848,VALID,33,VALID,0,
2010-08-03, 02:53:05,VALID,998.784,VALID,0,VALID,93.6231,VALID,0,VALID,21.887,VALID,33,VALID,0,
2010-08-03, 02:54:05,VALID,998.783,VALID,0,VALID,93.6612,VALID,0,VALID,21.9048,VALID,33,VALID,0,
2010-08-03, 02:55:05,VALID,998.803,VALID,0,VALID,93.7146,VALID,0,VALID,21.965,VALID,23,VALID,0,
2010-08-03, 02:56:05,VALID,998.826,VALID,0,VALID,93.7375,VALID,0,VALID,21.9845,VALID,9,VALID,0,
2010-08-03, 02:57:05,VALID,998.843,VALID,0,VALID,93.7223,VALID,0,VALID,21.9845,VALID,350,VALID,0,
2010-08-03, 02:58:05,VALID,998.845,VALID,0,VALID,93.7146,VALID,0,VALID,22.0235,VALID,331,VALID,0,
2010-08-03, 02:59:05,VALID,998.872,VALID,0,VALID,93.6841,VALID,0,VALID,21.9845,VALID,331,VALID,0,
2010-08-03, 03:00:05,VALID,998.861,VALID,0,VALID,93.6307,VALID,0,VALID,21.965,VALID,331,VALID,0,
2010-08-03, 03:01:05,VALID,998.827,VALID,0,VALID,93.6154,VALID,0,VALID,21.9455,VALID,331,VALID,0,
2010-08-03, 03:02:05,VALID,998.838,VALID,0,VALID,93.5697,VALID,0,VALID,21.926,VALID,331,VALID,0,
2010-08-03, 03:03:05,VALID,998.784,VALID,0,VALID,93.5544,VALID,0,VALID,21.926,VALID,331,VALID,0,
2010-08-03, 03:04:05,VALID,998.782,VALID,0,VALID,93.5697,VALID,0,VALID,21.9455,VALID,331,VALID,0,
2010-08-03, 03:05:05,VALID,998.775,VALID,0,VALID,93.5849,VALID,0,VALID,21.9455,VALID,331,VALID,0,
2010-08-03, 03:06:05,VALID,998.763,VALID,0,VALID,93.5849,VALID,0,VALID,21.9845,VALID,331,VALID,0,
2010-08-03, 03:07:05,VALID,998.754,VALID,0,VALID,93.5773,VALID,0,VALID,21.9633,VALID,331,VALID,0,
2010-08-03, 03:08:05,VALID,998.731,VALID,0,VALID,93.5315,VALID,0,VALID,21.9633,VALID,331,VALID,0,
2010-08-03, 03:09:05,VALID,998.742,VALID,0,VALID,93.5163,VALID,0,VALID,21.9243,VALID,331,VALID,0,
2010-08-03, 03:10:05,VALID,998.73,VALID,0,VALID,93.4628,VALID,0,VALID,21.9065,VALID,331,VALID,0,
2010-08-03, 03:11:05,VALID,998.721,VALID,0,VALID,93.4628,VALID,0,VALID,21.887,VALID,331,VALID,0,
2010-08-03, 03:12:05,VALID,998.694,VALID,0,VALID,93.4476,VALID,0,VALID,21.887,VALID,331,VALID,0,
2010-08-03, 03:13:05,VALID,998.681,VALID,0,VALID,93.4705,VALID,0,VALID,21.8853,VALID,331,VALID,0,
2010-08-03, 03:14:05,VALID,998.664,VALID,0,VALID,93.501,VALID,0,VALID,21.9065,VALID,343,VALID,0,
2010-08-03, 03:15:05,VALID,998.655,VALID,0,VALID,93.5391,VALID,0,VALID,21.9065,VALID,343,VALID,0,
2010-08-03, 03:16:05,VALID,998.664,VALID,0,VALID,93.5773,VALID,0,VALID,21.9065,VALID,6,VALID,0,
2010-08-03, 03:17:05,VALID,998.677,VALID,0,VALID,93.5544,VALID,0,VALID,21.8675,VALID,15,VALID,0,
2010-08-03, 03:18:05,VALID,998.688,VALID,0,VALID,93.4323,VALID,0,VALID,21.77,VALID,25,VALID,0,
2010-08-03, 03:19:05,VALID,998.709,VALID,0,VALID,93.3637,VALID,0,VALID,21.7505,VALID,42,VALID,1.33203,
2010-08-03, 03:20:05,VALID,998.749,VALID,0,VALID,93.3484,VALID,0,VALID,21.7895,VALID,46,VALID,1.12188,
2010-08-03, 03:21:05,VALID,998.72,VALID,0,VALID,93.2797,VALID,0,VALID,21.77,VALID,47,VALID,0.919141,
2010-08-03, 03:22:05,VALID,998.761,VALID,0,VALID,93.1882,VALID,0,VALID,21.7683,VALID,57,VALID,0.916797,
2010-08-03, 03:23:05,VALID,998.773,VALID,0,VALID,93.1958,VALID,0,VALID,21.809,VALID,57,VALID,1.17031,
2010-08-03, 03:24:05,VALID,998.765,VALID,0,VALID,93.1958,VALID,0,VALID,21.8675,VALID,64,VALID,1.06953,
2010-08-03, 03:25:05,VALID,998.802,VALID,0,VALID,93.234,VALID,0,VALID,21.9065,VALID,66,VALID,0.866016,
2010-08-03, 03:26:05,VALID,998.754,VALID,0,VALID,93.1729,VALID,0,VALID,21.8853,VALID,66,VALID,0.56875,
2010-08-03, 03:27:05,VALID,998.769,VALID,0,VALID,93.0966,VALID,0,VALID,21.9065,VALID,66,VALID,0.53125,
2010-08-03, 03:28:05,VALID,998.794,VALID,0,VALID,93.0661,VALID,0.112286,VALID,21.8853,VALID,67,VALID,0,
2010-08-03, 03:29:05,VALID,998.759,VALID,0,VALID,93.0356,VALID,0,VALID,21.9065,VALID,67,VALID,0,
2010-08-03, 03:30:05,VALID,998.737,VALID,0,VALID,93.0203,VALID,0,VALID,21.887,VALID,67,VALID,0,
2010-08-03, 03:31:04,VALID,998.725,VALID,0,VALID,93.0127,VALID,0,VALID,21.8675,VALID,67,VALID,0,
2010-08-03, 03:32:04,VALID,998.7,VALID,0,VALID,93.0127,VALID,0,VALID,21.8675,VALID,67,VALID,0,
2010-08-03, 03:33:04,VALID,998.688,VALID,0,VALID,93.0737,VALID,0.112286,VALID,21.8853,VALID,67,VALID,0,
2010-08-03, 03:34:04,VALID,998.683,VALID,0,VALID,93.1271,VALID,0,VALID,21.9065,VALID,67,VALID,0,
2010-08-03, 03:35:04,VALID,998.662,VALID,0,VALID,93.1424,VALID,0.112286,VALID,21.926,VALID,67,VALID,0,
2010-08-03, 03:36:04,VALID,998.67,VALID,0,VALID,93.1958,VALID,0,VALID,21.9277,VALID,67,VALID,0,
2010-08-03, 03:37:04,VALID,998.665,VALID,0,VALID,93.2111,VALID,0,VALID,21.926,VALID,67,VALID,0,
2010-08-03, 03:38:04,VALID,998.613,VALID,0,VALID,93.234,VALID,0,VALID,21.9277,VALID,67,VALID,0,
2010-08-03, 03:39:04,VALID,998.592,VALID,0,VALID,93.2492,VALID,0,VALID,21.9277,VALID,67,VALID,0,
2010-08-03, 03:40:04,VALID,998.593,VALID,0,VALID,93.2721,VALID,0,VALID,21.9065,VALID,67,VALID,0,
2010-08-03, 03:41:04,VALID,998.561,VALID,0,VALID,93.2721,VALID,0,VALID,21.9472,VALID,67,VALID,0,
2010-08-03, 03:42:04,VALID,998.597,VALID,0,VALID,93.3026,VALID,0,VALID,21.9277,VALID,67,VALID,0,
2010-08-03, 03:43:04,VALID,998.572,VALID,0,VALID,93.2645,VALID,0,VALID,21.887,VALID,43,VALID,0,
2010-08-03, 03:44:04,VALID,998.533,VALID,0,VALID,93.1653,VALID,0,VALID,21.8692,VALID,36,VALID,0,
2010-08-03, 03:45:04,VALID,998.561,VALID,0,VALID,93.0203,VALID,0,VALID,21.7911,VALID,26,VALID,0,
2010-08-03, 03:46:04,VALID,998.554,VALID,0,VALID,92.8754,VALID,0,VALID,21.7521,VALID,23,VALID,0,
2010-08-03, 03:47:04,VALID,998.542,VALID,0,VALID,92.7991,VALID,0,VALID,21.692,VALID,23,VALID,0,
2010-08-03, 03:48:04,VALID,998.523,VALID,0,VALID,92.8296,VALID,0,VALID,21.6741,VALID,23,VALID,0,
2010-08-03, 03:49:04,VALID,998.519,VALID,0,VALID,92.8754,VALID,0,VALID,21.6546,VALID,23,VALID,0,
2010-08-03, 03:50:04,VALID,998.495,VALID,0,VALID,92.9211,VALID,0,VALID,21.6351,VALID,23,VALID,0,
2010-08-03, 03:51:04,VALID,998.493,VALID,0,VALID,93.0051,VALID,0,VALID,21.653,VALID,23,VALID,0,
2010-08-03, 03:52:04,VALID,998.469,VALID,0,VALID,93.1653,VALID,0,VALID,21.6903,VALID,23,VALID,0,
2010-08-03, 03:53:04,VALID,998.457,VALID,0,VALID,93.2797,VALID,0.112286,VALID,21.7098,VALID,23,VALID,0,
2010-08-03, 03:54:04,VALID,998.434,VALID,0,VALID,93.3637,VALID,0,VALID,21.731,VALID,23,VALID,0,
2010-08-03, 03:55:04,VALID,998.435,VALID,0,VALID,93.3713,VALID,0,VALID,21.7505,VALID,23,VALID,0,
2010-08-03, 03:56:04,VALID,998.433,VALID,0,VALID,93.3866,VALID,0,VALID,21.7293,VALID,23,VALID,0,
2010-08-03, 03:57:04,VALID,998.401,VALID,0,VALID,93.3637,VALID,0,VALID,21.77,VALID,23,VALID,0,
2010-08-03, 03:58:04,VALID,998.387,VALID,0,VALID,93.3484,VALID,0,VALID,21.7505,VALID,23,VALID,0,
2010-08-03, 03:59:04,VALID,998.36,VALID,0,VALID,93.3484,VALID,0,VALID,21.7505,VALID,23,VALID,0,